When you browse on this site, cookies collect data to enhance your experience and personalize the content and advertising you see.
Visit our Privacy Policy to learn more. By continuing to use the site, you agree to this use of cookies and data.
  • In Hungary
  • List of Countries
  • For 7 days
  • Water Temperature
  • Satellite Maps
  • Weather Map
  • News
  • Weather Widgets
  • user-avatar
    Login

    Hourly Weather Arcyz

    Today, 24 April, Wednesday

    Time Temperature Precipitation Wind Pressure Humidity
    00:00 +9°C° 0 mm 2 mps 767 mmHg 57%
    01:00 +9°C° 0 mm 2 mps 767 mmHg 57%
    02:00 +10°C° 0 mm 1 mps 766 mmHg 58%
    03:00 +9°C° 0 mm 2 mps 766 mmHg 58%
    04:00 +9°C° 0 mm 2 mps 767 mmHg 58%
    05:00 +9°C° 0 mm 2 mps 767 mmHg 58%
    06:00 +10°C° 0 mm 2 mps 767 mmHg 57%
    07:00 +12°C° 0 mm 2 mps 767 mmHg 56%
    08:00 +13°C° 0 mm 2 mps 767 mmHg 54%
    09:00 +13°C° 0 mm 3 mps 767 mmHg 52%
    10:00 +13°C° 0 mm 3 mps 767 mmHg 49%
    11:00 +14°C° 0 mm 3 mps 767 mmHg 46%
    12:00 +16°C° 0 mm 3 mps 767 mmHg 44%
    13:00 +17°C° 0 mm 4 mps 767 mmHg 41%
    14:00 +18°C° 0 mm 4 mps 767 mmHg 38%
    15:00 +17°C° 0 mm 4 mps 767 mmHg 39%
    16:00 +16°C° 0 mm 5 mps 767 mmHg 40%
    17:00 +15°C° 0 mm 5 mps 766 mmHg 41%
    18:00 +14°C° 0 mm 4 mps 766 mmHg 46%
    19:00 +12°C° 0 mm 3 mps 766 mmHg 51%
    20:00 +10°C° 0 mm 3 mps 766 mmHg 57%
    21:00 +10°C° 0 mm 2 mps 767 mmHg 58%
    22:00 +9°C° 0 mm 2 mps 767 mmHg 60%
    23:00 +9°C° 0 mm 2 mps 767 mmHg 62%

    Tomorrow, 25 April, Thursday

    Time Temperature Precipitation Wind Pressure Humidity
    00:00 +8°C° 0 mm 2 mps 767 mmHg 62%
    01:00 +8°C° 0 mm 2 mps 767 mmHg 63%
    02:00 +9°C° 0 mm 1 mps 767 mmHg 64%
    03:00 +9°C° 0 mm 1 mps 766 mmHg 64%
    04:00 +8°C° 0 mm 2 mps 766 mmHg 65%
    05:00 +7°C° 0 mm 2 mps 766 mmHg 65%
    06:00 +9°C° 0 mm 2 mps 766 mmHg 61%
    07:00 +11°C° 0 mm 3 mps 767 mmHg 57%
    08:00 +13°C° 0 mm 4 mps 767 mmHg 53%
    09:00 +15°C° 0 mm 4 mps 767 mmHg 49%
    10:00 +16°C° 0 mm 5 mps 767 mmHg 45%
    11:00 +17°C° 0 mm 5 mps 767 mmHg 41%
    12:00 +17°C° 0 mm 6 mps 766 mmHg 40%
    13:00 +19°C° 0 mm 6 mps 766 mmHg 39%
    14:00 +19°C° 0 mm 6 mps 766 mmHg 38%
    15:00 +17°C° 0 mm 6 mps 765 mmHg 40%
    16:00 +16°C° 0 mm 6 mps 765 mmHg 42%
    17:00 +16°C° 0 mm 6 mps 765 mmHg 44%
    18:00 +14°C° 0 mm 5 mps 765 mmHg 52%
    19:00 +12°C° 0 mm 4 mps 765 mmHg 60%
    20:00 +10°C° 0 mm 3 mps 765 mmHg 67%
    21:00 +10°C° 0 mm 3 mps 765 mmHg 70%
    22:00 +9°C° 0 mm 3 mps 765 mmHg 72%
    23:00 +9°C° 0 mm 2 mps 765 mmHg 75%

    Day after tomorrow, 26 April, Friday

    Time Temperature Precipitation Wind Pressure Humidity
    00:00 +9°C° 0 mm 2 mps 764 mmHg 76%
    01:00 +8°C° 0 mm 2 mps 764 mmHg 76%
    02:00 +8°C° 0 mm 2 mps 764 mmHg 77%
    03:00 +8°C° 0 mm 2 mps 764 mmHg 77%
    04:00 +8°C° 0 mm 2 mps 764 mmHg 77%
    05:00 +8°C° 0 mm 2 mps 763 mmHg 77%
    06:00 +10°C° 0 mm 3 mps 764 mmHg 69%
    07:00 +12°C° 0 mm 3 mps 764 mmHg 62%
    08:00 +14°C° 0 mm 3 mps 764 mmHg 54%
    09:00 +15°C° 0 mm 4 mps 764 mmHg 49%
    10:00 +17°C° 0 mm 5 mps 764 mmHg 45%
    11:00 +20°C° 0 mm 5 mps 764 mmHg 40%
    12:00 +20°C° 0 mm 6 mps 763 mmHg 40%
    13:00 +20°C° 0 mm 6 mps 763 mmHg 40%
    14:00 +20°C° 0 mm 6 mps 762 mmHg 40%
    15:00 +20°C° 0 mm 6 mps 762 mmHg 42%
    16:00 +19°C° 0 mm 6 mps 762 mmHg 43%
    17:00 +19°C° 0 mm 6 mps 761 mmHg 45%
    18:00 +16°C° 0 mm 5 mps 761 mmHg 50%
    19:00 +14°C° 0 mm 4 mps 761 mmHg 55%
    20:00 +12°C° 0 mm 4 mps 761 mmHg 60%
    21:00 +12°C° 0 mm 3 mps 761 mmHg 62%
    22:00 +11°C° 0 mm 3 mps 761 mmHg 64%
    23:00 +11°C° 0 mm 3 mps 761 mmHg 67%

    27 April, Saturday

    Time Temperature Precipitation Wind Pressure Humidity
    00:00 +10°C° 0 mm 3 mps 761 mmHg 68%
    01:00 +10°C° 0 mm 3 mps 761 mmHg 70%
    02:00 +10°C° 0 mm 3 mps 760 mmHg 72%
    03:00 +9°C° 0 mm 3 mps 760 mmHg 74%
    04:00 +9°C° 0 mm 3 mps 760 mmHg 75%
    05:00 +9°C° 0 mm 3 mps 760 mmHg 77%
    06:00 +11°C° 0 mm 3 mps 760 mmHg 71%
    07:00 +13°C° 0 mm 4 mps 759 mmHg 64%
    08:00 +15°C° 0 mm 5 mps 759 mmHg 58%
    09:00 +17°C° 0 mm 5 mps 759 mmHg 54%
    10:00 +19°C° 0 mm 6 mps 759 mmHg 49%
    11:00 +21°C° 0 mm 6 mps 759 mmHg 45%
    12:00 +21°C° 0 mm 6 mps 758 mmHg 43%
    13:00 +22°C° 0 mm 6 mps 758 mmHg 42%
    14:00 +22°C° 0 mm 6 mps 758 mmHg 41%
    15:00 +21°C° 0 mm 6 mps 757 mmHg 43%
    16:00 +20°C° 0 mm 6 mps 757 mmHg 45%
    17:00 +19°C° 0 mm 6 mps 756 mmHg 47%
    18:00 +17°C° 0 mm 5 mps 756 mmHg 54%
    19:00 +15°C° 0 mm 5 mps 756 mmHg 60%
    20:00 +13°C° 0 mm 4 mps 756 mmHg 67%
    21:00 +12°C° 0 mm 4 mps 756 mmHg 71%
    22:00 +11°C° 0 mm 3 mps 756 mmHg 75%
    23:00 +10°C° 0 mm 3 mps 756 mmHg 79%

    28 April, Sunday

    Time Temperature Precipitation Wind Pressure Humidity
    00:00 +10°C° 0 mm 3 mps 756 mmHg 77%
    01:00 +10°C° 0 mm 3 mps 756 mmHg 76%
    02:00 +10°C° 0 mm 2 mps 755 mmHg 75%
    03:00 +9°C° 0 mm 2 mps 755 mmHg 74%
    04:00 +9°C° 0 mm 2 mps 755 mmHg 73%
    05:00 +9°C° 0 mm 2 mps 755 mmHg 73%
    06:00 +11°C° 0 mm 3 mps 755 mmHg 68%
    07:00 +12°C° 0 mm 3 mps 755 mmHg 63%
    08:00 +14°C° 0 mm 4 mps 755 mmHg 58%
    09:00 +17°C° 0 mm 4 mps 755 mmHg 52%
    10:00 +17°C° 0 mm 5 mps 755 mmHg 47%
    11:00 +20°C° 0 mm 5 mps 755 mmHg 41%
    12:00 +20°C° 0 mm 5 mps 755 mmHg 39%
    13:00 +21°C° 0 mm 5 mps 755 mmHg 37%
    14:00 +21°C° 0 mm 5 mps 755 mmHg 36%
    15:00 +20°C° 0 mm 5 mps 755 mmHg 38%
    16:00 +20°C° 0 mm 5 mps 755 mmHg 41%
    17:00 +19°C° 0 mm 5 mps 754 mmHg 43%
    18:00 +17°C° 0 mm 4 mps 755 mmHg 50%
    19:00 +14°C° 0 mm 4 mps 755 mmHg 56%
    20:00 +12°C° 0 mm 3 mps 755 mmHg 62%
    21:00 +12°C° 0 mm 3 mps 755 mmHg 64%
    22:00 +13°C° 0 mm 2 mps 755 mmHg 66%
    23:00 +12°C° 0 mm 2 mps 755 mmHg 68%

    29 April, Monday

    Time Temperature Precipitation Wind Pressure Humidity
    00:00 +12°C° 0 mm 2 mps 755 mmHg 70%
    01:00 +12°C° 0 mm 2 mps 755 mmHg 72%
    02:00 +11°C° 0 mm 1 mps 755 mmHg 74%
    03:00 +11°C° 0 mm 1 mps 755 mmHg 77%
    04:00 +11°C° 0 mm 1 mps 755 mmHg 79%
    05:00 +11°C° 0 mm 1 mps 755 mmHg 82%
    06:00 +12°C° 0 mm 0 mps 755 mmHg 77%
    07:00 +14°C° 0 mm 0 mps 755 mmHg 71%
    08:00 +16°C° 0 mm 0 mps 756 mmHg 66%
    09:00 +19°C° 0 mm 1 mps 756 mmHg 62%
    10:00 +21°C° 0 mm 1 mps 756 mmHg 57%
    11:00 +21°C° 0 mm 2 mps 756 mmHg 53%
    12:00 +23°C° 0 mm 2 mps 755 mmHg 52%
    13:00 +24°C° 0 mm 3 mps 755 mmHg 50%
    14:00 +24°C° 0 mm 3 mps 754 mmHg 49%
    15:00 +23°C° 0 mm 4 mps 754 mmHg 51%
    16:00 +22°C° 0 mm 4 mps 754 mmHg 53%
    17:00 +22°C° 0 mm 4 mps 753 mmHg 55%
    18:00 +20°C° 0 mm 4 mps 753 mmHg 60%
    19:00 +18°C° 0 mm 4 mps 754 mmHg 65%
    20:00 +16°C° 0 mm 3 mps 754 mmHg 70%
    21:00 +14°C° 0 mm 3 mps 754 mmHg 72%
    22:00 +14°C° 0 mm 3 mps 754 mmHg 74%
    23:00 +13°C° 0 mm 3 mps 754 mmHg 76%
    Show more